timestamp,wind_dir_avg,wind_spd_avg,wind_spd_max_dir,wind_spd_gust,battery_voltage,lat,long
2022-05-26 00:04:01+00:00,206.0,6.12,207.0,6.72,13.13,47.59359,-54.27349
2022-05-26 00:14:00+00:00,215.0,5.72,220.0,6.51,12.49,47.59359,-54.27349
2022-05-26 00:24:00+00:00,219.0,5.38,220.0,6.08,12.49,47.59359,-54.27349
2022-05-26 00:34:00+00:00,227.0,6.39,232.0,7.57,12.49,47.59359,-54.27349
2022-05-26 00:44:00+00:00,228.0,6.11,234.0,7.34,12.49,47.59359,-54.27349
2022-05-26 00:54:00+00:00,227.0,5.97,223.0,7.25,12.49,47.59359,-54.27349
2022-05-26 01:04:00+00:00,225.0,6.5,232.0,7.48,12.49,47.59359,-54.27349
2022-05-26 01:14:01+00:00,227.0,6.52,229.0,7.19,12.41,47.59359,-54.27349
2022-05-26 01:24:01+00:00,231.0,5.45,233.0,6.95,12.41,47.59359,-54.27349
2022-05-26 01:34:01+00:00,228.0,5.7,227.0,6.37,12.41,47.59359,-54.27349
2022-05-26 01:44:01+00:00,226.0,4.8,225.0,5.83,12.41,47.59359,-54.27349
2022-05-26 01:54:01+00:00,215.0,6.06,227.0,7.74,12.41,47.59359,-54.27349
2022-05-26 02:04:01+00:00,215.0,5.75,230.0,6.62,12.41,47.59359,-54.27349
2022-05-26 02:14:00+00:00,212.0,6.59,211.0,7.21,12.41,47.59359,-54.27349
2022-05-26 02:24:00+00:00,214.0,6.93,210.0,7.78,12.41,47.59359,-54.27349
2022-05-26 02:34:00+00:00,216.0,7.16,217.0,8.16,12.41,47.59359,-54.27349
2022-05-26 02:44:00+00:00,213.0,7.18,214.0,8.07,12.41,47.59359,-54.27349
2022-05-26 02:54:00+00:00,219.0,7.01,216.0,8.12,12.41,47.59359,-54.27349
2022-05-26 03:04:00+00:00,224.0,6.16,228.0,7.01,12.41,47.59359,-54.27349
2022-05-26 03:14:01+00:00,225.0,5.42,227.0,6.05,12.33,47.59359,-54.27349
2022-05-26 03:24:01+00:00,230.0,4.7,229.0,6.08,12.33,47.59359,-54.27349
2022-05-26 03:34:01+00:00,228.0,4.92,223.0,5.62,12.33,47.59359,-54.27349
2022-05-26 03:44:01+00:00,226.0,4.86,238.0,6.67,12.33,47.59359,-54.27349
2022-05-26 03:54:01+00:00,243.0,5.27,251.0,6.9,12.33,47.59359,-54.27349
2022-05-26 04:04:01+00:00,238.0,5.07,244.0,6.44,12.33,47.59359,-54.27349
2022-05-26 04:14:00+00:00,242.0,5.47,244.0,6.69,12.17,47.59359,-54.27349
2022-05-26 04:24:00+00:00,239.0,5.88,241.0,6.56,12.17,47.59359,-54.27349
2022-05-26 04:34:00+00:00,249.0,6.21,250.0,6.75,12.17,47.59359,-54.27349
2022-05-26 04:44:00+00:00,240.0,4.41,245.0,5.84,12.17,47.59359,-54.27349
2022-05-26 04:54:00+00:00,235.0,5.91,241.0,6.63,12.17,47.59359,-54.27349
2022-05-26 05:04:00+00:00,233.0,5.29,239.0,6.52,12.17,47.59359,-54.27349
2022-05-26 05:14:00+00:00,237.0,6.32,239.0,7.04,12.33,47.59359,-54.27349
2022-05-26 05:24:00+00:00,239.0,5.71,244.0,6.6,12.33,47.59359,-54.27349
2022-05-26 05:34:00+00:00,247.0,5.18,251.0,6.48,12.33,47.59359,-54.27349
2022-05-26 05:44:00+00:00,245.0,2.72,253.0,3.49,12.33,47.59359,-54.27349
2022-05-26 05:54:00+00:00,205.0,1.95,215.0,2.15,12.33,47.59359,-54.27349
2022-05-26 06:04:00+00:00,206.0,2.24,242.0,3.72,12.33,47.59359,-54.27349
2022-05-26 06:14:00+00:00,205.0,2.6,217.0,2.88,12.09,47.59359,-54.27349
2022-05-26 06:24:00+00:00,197.0,3.22,191.0,3.54,12.09,47.59359,-54.27349
2022-05-26 06:34:00+00:00,185.0,1.8,181.0,2.24,12.09,47.59359,-54.27349
2022-05-26 06:44:00+00:00,255.0,3.07,259.0,4.92,12.09,47.59359,-54.27349
2022-05-26 06:54:00+00:00,256.0,4.25,270.0,5.15,12.09,47.59359,-54.27349
2022-05-26 07:04:00+00:00,235.0,2.92,237.0,3.72,12.09,47.59359,-54.27349
2022-05-26 07:14:00+00:00,243.0,3.52,247.0,4.11,12.17,47.59359,-54.27349
2022-05-26 07:24:00+00:00,235.0,3.79,237.0,4.39,12.17,47.59359,-54.27349
2022-05-26 07:34:00+00:00,241.0,3.81,236.0,4.65,12.17,47.59359,-54.27349
2022-05-26 07:44:00+00:00,235.0,1.66,239.0,2.05,12.17,47.59359,-54.27349
2022-05-26 07:54:00+00:00,231.0,2.31,241.0,3.17,12.17,47.59359,-54.27349
2022-05-26 08:04:00+00:00,268.0,2.13,265.0,2.55,12.17,47.59359,-54.27349
2022-05-26 08:14:01+00:00,264.0,2.03,268.0,2.79,12.17,47.59359,-54.27349
2022-05-26 08:24:01+00:00,234.0,4.16,242.0,5.5,12.17,47.59359,-54.27349
2022-05-26 08:34:01+00:00,238.0,1.66,239.0,2.1,12.17,47.59359,-54.27349
2022-05-26 08:44:01+00:00,184.0,1.76,177.0,2.03,12.17,47.59359,-54.27349
2022-05-26 08:54:01+00:00,216.0,2.68,213.0,3.17,12.17,47.59359,-54.27349
2022-05-26 09:04:01+00:00,310.0,1.65,299.0,2.19,12.17,47.59359,-54.27349
2022-05-26 09:14:01+00:00,289.0,1.35,290.0,1.54,12.33,47.59359,-54.27349
2022-05-26 09:24:01+00:00,319.0,0.64,325.0,1.24,12.33,47.59359,-54.27349
2022-05-26 09:34:01+00:00,38.0,0.71,20.0,1.04,12.33,47.59359,-54.27349
2022-05-26 09:44:01+00:00,80.0,1.22,75.0,1.66,12.33,47.59359,-54.27349
2022-05-26 09:54:01+00:00,56.0,1.01,50.0,1.31,12.33,47.59359,-54.27349
2022-05-26 10:04:01+00:00,298.0,4.78,294.0,5.96,12.33,47.59359,-54.27349
2022-05-26 10:14:01+00:00,288.0,4.84,285.0,5.3,13.37,47.59359,-54.27349
2022-05-26 10:24:01+00:00,274.0,5.5,279.0,6.68,13.37,47.59359,-54.27349
2022-05-26 10:34:01+00:00,272.0,6.34,274.0,7.48,13.37,47.59359,-54.27349
2022-05-26 10:44:01+00:00,291.0,5.7,289.0,6.53,13.37,47.59359,-54.27349
2022-05-26 10:54:01+00:00,308.0,6.72,308.0,8.03,13.37,47.59359,-54.27349
2022-05-26 11:04:01+00:00,323.0,6.73,316.0,7.96,13.37,47.59359,-54.27349
2022-05-26 11:14:01+00:00,308.0,4.71,322.0,5.48,13.53,47.59359,-54.27349
2022-05-26 11:24:01+00:00,308.0,4.41,310.0,5.02,13.53,47.59359,-54.27349
2022-05-26 11:34:01+00:00,315.0,4.96,317.0,5.72,13.53,47.59359,-54.27349
2022-05-26 11:44:01+00:00,307.0,3.91,298.0,4.59,13.53,47.59359,-54.27349
2022-05-26 11:54:01+00:00,313.0,4.07,314.0,4.49,13.53,47.59359,-54.27349
2022-05-26 12:04:01+00:00,331.0,5.99,332.0,6.41,13.53,47.59359,-54.27349
2022-05-26 12:14:00+00:00,338.0,6.02,332.0,7.19,13.84,47.59359,-54.27349
2022-05-26 12:24:00+00:00,334.0,6.32,328.0,6.95,13.84,47.59359,-54.27349
2022-05-26 12:34:00+00:00,349.0,5.84,350.0,6.4,13.84,47.59359,-54.27349
2022-05-26 12:44:00+00:00,335.0,5.17,335.0,6.18,13.84,47.59359,-54.27349
2022-05-26 12:54:00+00:00,343.0,5.59,335.0,6.27,13.84,47.59359,-54.27349
2022-05-26 13:04:00+00:00,346.0,5.69,342.0,6.59,13.84,47.59359,-54.27349
2022-05-26 13:14:01+00:00,339.0,6.07,337.0,6.59,14.24,47.59359,-54.27349
2022-05-26 13:24:01+00:00,337.0,8.74,332.0,9.91,14.24,47.59359,-54.27349
2022-05-26 13:34:01+00:00,354.0,9.93,3.0,11.44,14.24,47.59359,-54.27349
2022-05-26 13:44:01+00:00,4.0,7.05,356.0,7.86,14.24,47.59359,-54.27349
2022-05-26 13:54:01+00:00,359.0,7.69,8.0,8.94,14.24,47.59359,-54.27349
2022-05-26 14:04:01+00:00,1.0,7.0,8.0,8.88,14.24,47.59359,-54.27349
2022-05-26 14:14:00+00:00,8.0,7.53,4.0,8.86,13.68,47.59359,-54.27349
2022-05-26 14:24:00+00:00,14.0,7.22,16.0,8.26,13.68,47.59359,-54.27349
2022-05-26 14:34:00+00:00,4.0,8.45,1.0,9.8,13.68,47.59359,-54.27349
2022-05-26 14:44:00+00:00,3.0,5.9,0.0,7.53,13.68,47.59359,-54.27349
2022-05-26 14:54:00+00:00,1.0,5.66,21.0,7.18,13.68,47.59359,-54.27349
2022-05-26 15:04:00+00:00,354.0,5.31,354.0,6.12,13.68,47.59359,-54.27349
2022-05-26 15:14:01+00:00,359.0,8.62,356.0,10.02,14.32,47.59359,-54.27349
2022-05-26 15:24:01+00:00,359.0,7.03,355.0,8.32,14.32,47.59359,-54.27349
2022-05-26 15:34:01+00:00,355.0,6.96,356.0,7.4,14.32,47.59359,-54.27349
2022-05-26 15:44:01+00:00,19.0,6.66,22.0,7.46,14.32,47.59359,-54.27349
2022-05-26 15:54:01+00:00,5.0,5.78,5.0,7.04,14.32,47.59359,-54.27349
2022-05-26 16:04:01+00:00,4.0,10.34,3.0,11.98,14.32,47.59359,-54.27349
2022-05-26 16:14:00+00:00,96.0,5.74,75.0,9.9,13.84,47.59359,-54.27349
2022-05-26 16:24:00+00:00,104.0,5.53,102.0,10.27,13.84,47.59359,-54.27349
2022-05-26 16:34:00+00:00,100.0,4.94,72.0,9.86,13.84,47.59359,-54.27349
2022-05-26 16:44:00+00:00,102.0,5.87,110.0,10.6,13.84,47.59359,-54.27349
2022-05-26 16:54:00+00:00,89.0,4.65,78.0,10.01,13.84,47.59359,-54.27349
2022-05-26 17:04:00+00:00,91.0,5.47,79.0,9.3,13.84,47.59359,-54.27349
2022-05-26 17:14:00+00:00,94.0,5.27,90.0,9.17,13.76,47.59359,-54.27349
2022-05-26 17:24:00+00:00,102.0,5.7,79.0,9.71,13.76,47.59359,-54.27349
2022-05-26 17:34:00+00:00,104.0,5.23,97.0,9.09,13.76,47.59359,-54.27349
2022-05-26 17:44:00+00:00,122.0,6.08,114.0,7.58,13.76,47.59359,-54.27349
2022-05-26 17:54:00+00:00,126.0,6.63,130.0,7.4,13.76,47.59359,-54.27349
2022-05-26 18:04:00+00:00,91.0,3.79,66.0,6.82,13.76,47.59359,-54.27349
2022-05-26 18:14:01+00:00,103.0,2.73,97.0,5.59,13.84,47.59359,-54.27349
2022-05-26 18:24:01+00:00,123.0,6.75,127.0,7.83,13.84,47.59359,-54.27349
2022-05-26 18:34:01+00:00,119.0,4.39,129.0,6.2,13.84,47.59359,-54.27349
2022-05-26 18:44:01+00:00,122.0,5.02,122.0,6.07,13.84,47.59359,-54.27349
2022-05-26 18:54:01+00:00,113.0,4.12,126.0,6.32,13.84,47.59359,-54.27349
2022-05-26 19:04:01+00:00,92.0,3.25,66.0,6.19,13.84,47.59359,-54.27349
2022-05-26 19:14:00+00:00,115.0,4.77,113.0,7.56,13.68,47.59359,-54.27349
2022-05-26 19:24:00+00:00,93.0,3.29,93.0,6.44,13.68,47.59359,-54.27349
2022-05-26 19:34:00+00:00,93.0,3.81,109.0,6.61,13.68,47.59359,-54.27349
2022-05-26 19:44:00+00:00,106.0,5.91,112.0,8.31,13.68,47.59359,-54.27349
2022-05-26 19:54:00+00:00,94.0,4.88,77.0,8.18,13.68,47.59359,-54.27349
2022-05-26 20:04:00+00:00,89.0,3.47,72.0,5.75,13.68,47.59359,-54.27349
2022-05-26 20:14:01+00:00,101.0,4.08,100.0,6.82,13.53,47.59359,-54.27349
2022-05-26 20:24:01+00:00,99.0,4.43,95.0,7.83,13.53,47.59359,-54.27349
2022-05-26 20:34:01+00:00,84.0,3.93,99.0,5.95,13.53,47.59359,-54.27349
2022-05-26 20:44:01+00:00,80.0,3.33,82.0,5.41,13.53,47.59359,-54.27349
2022-05-26 20:54:01+00:00,82.0,5.59,75.0,10.59,13.53,47.59359,-54.27349
2022-05-26 21:04:01+00:00,72.0,5.25,79.0,8.04,13.53,47.59359,-54.27349
2022-05-26 21:14:01+00:00,74.0,5.18,66.0,7.95,13.53,47.59359,-54.27349
2022-05-26 21:24:01+00:00,73.0,4.94,59.0,7.95,13.53,47.59359,-54.27349
2022-05-26 21:34:01+00:00,70.0,5.36,71.0,7.91,13.53,47.59359,-54.27349
2022-05-26 21:44:01+00:00,74.0,5.29,78.0,7.95,13.53,47.59359,-54.27349
2022-05-26 21:54:01+00:00,81.0,4.78,81.0,6.89,13.53,47.59359,-54.27349
2022-05-26 22:04:01+00:00,81.0,4.81,81.0,6.68,13.53,47.59359,-54.27349
2022-05-26 22:14:00+00:00,74.0,5.35,63.0,7.66,13.53,47.59359,-54.27349
2022-05-26 22:24:00+00:00,70.0,5.99,70.0,7.88,13.53,47.59359,-54.27349
2022-05-26 22:34:00+00:00,70.0,7.69,68.0,9.35,13.53,47.59359,-54.27349
2022-05-26 22:44:00+00:00,69.0,4.89,77.0,7.47,13.53,47.59359,-54.27349
2022-05-26 22:54:00+00:00,75.0,4.7,73.0,8.07,13.53,47.59359,-54.27349
2022-05-26 23:04:00+00:00,80.0,4.66,76.0,6.5,13.53,47.59359,-54.27349
2022-05-26 23:14:00+00:00,81.0,4.66,80.0,6.56,13.05,47.59359,-54.27349
2022-05-26 23:24:00+00:00,85.0,5.26,75.0,6.67,13.05,47.59359,-54.27349
2022-05-26 23:34:00+00:00,86.0,5.35,104.0,6.78,13.05,47.59359,-54.27349
2022-05-26 23:44:00+00:00,80.0,4.48,80.0,6.55,13.05,47.59359,-54.27349
2022-05-26 23:54:00+00:00,77.0,4.69,86.0,6.57,13.05,47.59359,-54.27349
